Location: ???????
(55.4362°N, 38.1183°E)
Time: 12:25:27
(UTC+00:00)

deb Delta 139 - Pass Details

Date: 03 February 2022
Orbit: 790 x 1093 km, 98.7° (Epoch: 23 May)

Event Time Altitude Azimuth Distance (km) Brightness Sun altitude
Rises 15:03:34 0° 181° (S) 3,377 ? -8.2°
Reaches altitude 10° 15:05:55 10° 187° (S) 2,481 ? -8.6°
Maximum altitude 15:11:15 49° 262° (W) 1,156 ? -9.3°
Drops below altitude 10° 15:17:02 10° 336° (NNW) 2,689 ? -10.1°
Sets 15:19:42 0° 342° (NNW) 3,687 ? -10.4°
